Date,TemperatureHighF,TemperatureAvgF,TemperatureLowF,DewpointHighF,DewpointAvgF,DewpointLowF,HumidityHigh,HumidityAvg,HumidityLow,PressureMaxIn,PressureMinIn,WindSpeedMaxMPH,WindSpeedAvgMPH,GustSpeedMaxMPH,PrecipitationSumIn
2013-2-9,26,19,14,7,3,-1,58,50,41,30.31,30.05,7,1,11,0.00
2013-2-10,29,19,8,17,6,-1,70,57,41,30.47,30.29,3,0,7,0.07
2013-2-11,41,34,28,38,28,9,98,83,44,30.28,29.65,6,0,11,0.26
2013-2-12,37,35,31,30,25,20,74,69,64,29.91,29.66,8,2,17,0.03
2013-2-13,38,33,28,27,22,19,81,66,49,29.90,29.69,5,1,8,0.02
2013-2-14,39,32,25,27,23,20,88,71,51,29.94,29.69,5,0,7,0.00
2013-2-15,48,38,31,30,27,23,92,65,39,29.95,29.87,7,1,13,0.00
2013-2-16,33,28,23,30,20,10,94,73,55,29.96,29.76,6,1,9,0.05
2013-2-17,24,19,12,12,3,0,64,50,38,29.86,29.59,15,3,26,0.00
2013-2-18,30,21,12,12,4,0,66,50,31,30.18,29.86,8,2,16,0.00
2013-2-19,34,30,22,32,22,8,96,75,52,30.16,29.62,5,0,7,0.03
2013-2-20,32,24,20,30,14,7,91,66,49,29.89,29.64,10,2,19,0.01
2013-2-21,28,22,19,16,12,9,77,67,55,30.32,29.88,6,2,14,0.00
2013-2-22,31,26,20,23,20,15,89,76,63,30.40,30.26,6,1,7,0.01
2013-2-23,34,32,29,33,31,24,97,94,79,30.26,29.84,4,0,4,0.00
2013-2-24,42,34,29,38,29,20,98,85,68,29.94,29.73,5,1,13,0.01
2013-2-25,38,33,28,27,25,21,85,73,58,30.23,29.94,4,1,9,0.00
2013-2-26,39,33,25,28,25,22,92,75,58,30.29,29.99,5,1,11,0.00
2013-2-27,40,36,29,38,34,27,97,93,89,30.00,29.52,10,2,14,1.28
2013-2-28,40,35,33,38,34,30,98,95,86,29.59,29.53,6,0,8,0.08
2013-3-1,38,34,30,30,27,23,88,77,64,29.75,29.58,4,1,11,0.00
2013-3-2,34,30,25,24,22,18,80,73,64,29.75,29.68,6,2,12,0.01
2013-3-3,31,26,21,21,17,14,74,70,63,29.74,29.66,8,2,8,0.00
2013-3-4,34,28,24,22,19,16,79,70,59,29.89,29.72,11,2,16,0.00
2013-3-5,41,33,26,27,24,20,82,71,54,30.02,29.87,5,1,14,0.00
2013-3-6,39,35,33,32,27,24,84,73,67,30.05,29.96,7,2,13,0.00
2013-3-7,36,32,30,29,26,22,94,77,65,30.09,30.01,8,1,13,0.00
2013-3-8,41,34,29,34,28,23,91,80,61,30.23,30.01,8,2,15,0.13
2013-3-9,54,41,33,27,21,13,63,47,20,30.30,30.21,5,1,12,0.00
2013-3-10,50,40,30,31,24,17,74,55,39,30.34,30.22,6,1,9,0.00
2013-3-11,46,41,33,42,34,28,93,78,66,30.24,30.04,6,1,8,0.00
2013-3-12,51,46,36,50,44,33,98,96,87,30.04,29.64,6,1,9,2.53
2013-3-13,44,36,30,33,26,20,86,68,41,29.82,29.75,7,1,9,0.00
2013-3-14,30,25,20,26,12,8,87,57,48,29.87,29.79,11,3,13,0.00
2013-3-15,34,29,21,30,18,8,89,64,46,29.91,29.68,5,2,14,0.01
2013-3-16,33,29,24,26,20,9,92,70,38,29.88,29.75,6,1,9,0.00
2013-3-17,33,26,19,22,12,6,90,58,35,30.31,29.89,11,1,14,0.01
2013-3-18,30,24,16,24,11,1,94,62,33,30.41,30.07,5,1,9,0.00
2013-3-19,34,30,26,33,29,23,97,93,82,30.07,29.68,3,0,6,0.14
2013-3-20,36,28,24,23,19,15,87,68,44,29.82,29.74,5,1,14,0.10
2013-3-21,34,26,16,20,13,7,86,62,35,29.80,29.61,4,1,8,0.11
2013-3-22,34,28,19,22,18,11,86,69,56,29.80,29.68,7,2,11,0.06
2013-3-23,39,32,29,24,20,17,83,61,43,29.87,29.75,11,2,16,0.09
2013-3-24,41,34,27,24,21,18,73,59,43,29.90,29.72,8,2,12,0.07
2013-3-25,41,36,31,27,24,22,75,63,50,29.73,29.47,7,1,9,0.01
2013-3-26,43,36,32,31,26,18,82,67,37,29.84,29.58,5,1,12,0.00
2013-3-27,47,37,28,28,23,20,79,60,38,29.92,29.82,6,1,9,0.00
2013-3-28,44,38,33,32,29,26,80,71,61,30.08,29.91,4,1,9,0.00
2013-3-29,49,39,33,29,28,26,78,65,44,30.11,30.05,6,1,11,0.00
2013-3-30,53,41,32,30,24,18,82,55,27,30.12,30.04,5,1,11,0.00
2013-3-31,52,40,31,38,28,21,96,65,38,30.10,29.69,10,1,16,0.38
2013-4-1,52,40,28,43,31,13,97,73,41,29.84,29.56,9,2,19,0.02
2013-4-2,36,30,25,17,12,8,64,48,34,30.00,29.83,14,3,16,0.00
2013-4-3,40,31,26,17,14,12,71,50,37,30.25,29.99,12,2,15,0.00
2013-4-4,51,38,24,20,17,12,74,46,25,30.35,30.00,6,2,10,0.00
2013-4-5,55,41,31,25,19,15,62,43,27,30.00,29.71,7,2,13,0.00
2013-4-6,45,35,27,20,10,1,65,39,16,30.28,29.95,15,2,16,0.00
2013-4-7,57,44,32,38,25,10,84,49,32,30.25,29.93,10,2,18,0.00
2013-4-8,59,51,40,39,37,36,88,62,44,30.05,29.95,8,2,10,0.00
2013-4-9,67,58,49,47,43,37,88,58,35,29.96,29.83,9,2,13,0.00
2013-4-10,54,50,47,51,49,42,98,94,68,29.94,29.79,3,0,5,0.64
2013-4-11,51,44,34,50,39,22,98,84,42,30.05,29.81,4,0,7,0.09
2013-4-12,37,36,34,37,35,33,98,95,86,30.05,29.75,5,1,10,0.63
2013-4-13,50,41,35,40,36,33,99,84,54,29.92,29.77,5,0,6,0.02
2013-4-14,46,40,33,35,29,24,92,65,45,30.20,29.91,6,1,12,0.00
2013-4-15,57,44,32,35,30,24,86,60,41,30.35,30.20,5,1,10,0.00
2013-4-16,56,49,42,54,43,30,96,80,59,30.33,30.08,4,0,8,0.09
2013-4-17,63,53,43,54,36,29,96,57,28,30.28,30.08,7,1,11,0.02
2013-4-18,56,48,42,48,37,29,96,67,42,30.32,30.07,9,2,16,0.01
2013-4-19,65,58,48,61,57,48,98,94,85,30.06,29.55,7,1,12,0.64
2013-4-20,56,45,34,55,32,19,98,65,36,30.26,29.62,8,2,12,0.23
2013-4-21,49,39,30,24,19,15,68,47,27,30.62,30.27,7,2,13,0.00
2013-4-22,53,44,34,33,23,15,73,46,30,30.67,30.48,8,2,12,0.00
2013-4-23,46,39,30,39,33,27,91,78,73,30.49,30.13,4,1,7,0.00
2013-4-24,69,52,34,51,42,33,97,72,45,30.11,29.74,8,2,10,0.00
2013-4-25,58,48,40,52,29,19,85,51,24,30.24,29.75,9,2,13,0.02
2013-4-26,57,47,38,35,30,28,71,55,37,30.41,30.24,6,2,12,0.00
2013-4-27,62,49,34,33,29,24,77,49,30,30.43,30.27,8,1,11,0.00
2013-4-28,68,55,43,40,34,30,69,47,28,30.29,30.12,6,2,13,0.00
2013-4-29,53,50,47,47,44,32,96,80,48,30.21,30.15,6,0,9,0.09
2013-4-30,65,54,46,48,41,32,96,67,36,30.29,30.19,7,1,8,0.01
2013-5-1,69,56,43,38,33,25,72,45,20,30.43,30.29,8,2,13,0.00
2013-5-2,75,60,45,42,38,33,75,47,23,30.42,30.26,9,1,10,0.00
2013-5-3,66,57,48,43,34,29,65,43,27,30.42,30.29,10,2,12,0.00
2013-5-4,70,57,42,45,40,38,86,56,33,30.33,30.16,7,1,10,0.00
2013-5-5,67,54,41,43,37,27,91,58,23,30.25,30.14,7,1,10,0.00
2013-5-6,67,54,40,48,41,36,90,63,33,30.22,30.09,5,1,8,0.00
2013-5-7,73,61,48,54,49,40,95,68,31,30.13,30.03,8,1,11,0.00
2013-5-8,62,60,57,60,57,54,95,90,81,30.10,29.94,5,1,11,0.25
2013-5-9,62,57,51,58,54,50,96,90,73,29.97,29.85,3,0,6,0.05
2013-5-10,72,62,50,57,53,49,97,76,49,29.96,29.83,4,1,6,0.00
2013-5-11,64,60,56,62,58,55,99,95,79,29.83,29.65,4,0,5,0.34
2013-5-12,58,51,40,55,42,26,99,76,35,29.84,29.61,7,1,10,0.02
2013-5-13,48,42,35,36,29,25,81,61,44,30.07,29.83,7,1,13,0.00
2013-5-14,55,44,34,30,26,18,87,54,25,30.09,30.00,5,1,8,0.00
2013-5-15,62,48,36,52,40,29,94,74,48,30.05,29.64,3,0,7,0.05
2013-5-16,77,65,52,50,40,34,94,44,21,29.81,29.68,5,1,9,0.00
2013-5-17,66,57,48,41,38,35,70,51,33,30.19,29.81,4,0,12,0.00
2013-5-18,64,55,44,48,43,39,84,65,45,30.27,30.19,3,0,6,0.00
2013-5-19,54,53,50,54,52,45,99,94,81,30.29,30.14,3,0,3,0.34
2013-5-20,76,64,52,66,60,52,99,87,66,30.14,29.92,4,0,6,0.01
2013-5-21,85,72,60,70,64,59,97,80,48,29.94,29.75,2,0,7,0.00
2013-5-22,72,68,63,70,66,61,96,91,75,29.84,29.77,2,0,6,0.01
2013-5-23,71,66,60,66,62,57,99,88,75,29.82,29.69,4,0,5,0.49
2013-5-24,62,50,40,61,49,39,99,96,89,29.94,29.63,4,1,12,0.62
2013-5-25,44,42,40,42,40,39,98,95,90,29.95,29.86,5,1,13,0.70
2013-5-26,55,47,40,43,39,36,96,75,51,30.15,29.87,7,1,12,0.04
2013-5-27,69,55,42,43,38,31,88,58,26,30.20,30.10,5,1,9,0.00
2013-5-28,63,53,45,53,45,37,98,79,39,30.19,30.11,2,0,3,0.14
2013-5-29,75,63,53,69,61,53,99,92,79,30.11,29.95,2,0,8,0.95
2013-5-30,84,72,61,70,64,60,99,80,51,30.08,30.01,2,0,6,0.00
2013-5-31,87,74,63,68,64,59,95,72,40,30.08,29.92,4,0,6,0.00
2013-6-1,86,75,64,69,64,60,86,71,46,29.96,29.83,3,0,7,0.00
2013-6-2,82,71,65,70,67,64,96,87,64,29.83,29.69,5,0,8,0.13
2013-6-3,70,63,54,64,58,44,98,83,56,29.88,29.76,4,0,6,0.04
2013-6-4,68,58,49,44,39,33,72,52,28,30.10,29.88,7,1,9,0.00
2013-6-5,68,59,47,50,44,38,83,60,42,30.18,30.07,5,0,6,0.00
2013-6-6,64,57,53,55,50,47,97,78,64,30.12,30.01,3,0,7,0.05
2013-6-7,57,55,54,56,55,53,99,98,96,30.00,29.71,2,0,4,1.27
2013-6-8,72,61,55,62,58,54,99,88,61,30.03,29.64,3,0,6,0.54
2013-6-9,75,63,52,59,55,51,97,79,47,30.16,30.03,3,0,6,0.00
2013-6-10,61,59,56,61,58,54,98,96,91,30.16,29.84,3,0,7,0.86
2013-6-11,69,62,58,67,60,55,99,94,79,29.84,29.56,4,0,7,0.92
2013-6-12,67,61,54,57,53,51,95,77,57,29.83,29.62,4,1,9,0.01
2013-6-13,56,54,51,55,53,50,98,96,91,29.82,29.59,6,0,9,0.52
2013-6-14,68,56,49,59,54,48,98,92,62,29.86,29.62,3,0,11,1.16
2013-6-15,73,62,52,55,50,43,95,67,39,29.97,29.86,4,1,8,0.00
2013-6-16,70,62,51,62,55,47,90,80,63,29.95,29.71,6,0,6,0.00
2013-6-17,80,67,59,63,59,54,95,80,44,29.88,29.78,6,0,12,0.10
2013-6-18,68,61,55,64,59,48,98,92,77,29.90,29.83,2,0,5,0.21
2013-6-19,69,60,52,52,47,41,87,66,37,30.16,29.90,3,0,9,0.01
2013-6-20,74,61,48,58,51,45,89,71,47,30.24,30.16,4,0,5,0.00
2013-6-21,76,67,57,66,61,54,92,81,65,30.23,30.17,3,0,5,0.00
2013-6-22,79,69,60,65,62,58,94,78,56,30.19,30.06,3,0,5,0.00
2013-6-23,86,74,65,72,66,63,93,76,47,30.11,29.98,4,1,7,0.00
2013-6-24,86,74,66,72,67,61,94,80,54,30.01,29.90,2,0,5,0.06
2013-6-25,85,74,65,72,66,59,89,77,53,29.96,29.73,3,0,7,0.01
2013-6-26,77,72,66,69,66,63,93,84,71,29.79,29.73,2,0,4,0.00
2013-6-27,78,70,62,70,66,60,96,86,71,29.79,29.51,3,0,8,0.04
2013-6-28,77,70,64,69,66,63,98,88,67,29.49,29.39,8,1,14,1.38
2013-6-29,76,68,60,66,63,59,97,85,62,29.66,29.44,3,0,7,0.00
2013-6-30,80,68,63,70,65,61,97,88,69,29.89,29.66,3,0,8,0.51
2013-7-1,72,68,64,70,68,64,99,97,92,30.00,29.87,1,0,3,0.72
2013-7-2,77,72,69,74,71,69,99,97,86,30.11,29.99,3,0,4,0.36
2013-7-3,77,72,68,74,71,68,99,95,86,30.17,30.10,0,0,2,0.28
2013-7-4,84,75,67,74,70,67,99,86,66,30.18,30.08,3,0,7,0.00
2013-7-5,86,77,70,74,71,69,96,83,60,30.14,30.02,3,0,7,0.00
2013-7-6,84,76,71,71,70,68,92,81,59,30.06,29.98,4,0,6,0.00
2013-7-7,86,76,69,77,72,67,95,87,63,30.02,29.87,3,0,6,0.00
2013-7-8,82,73,68,71,68,66,98,86,59,30.00,29.89,2,0,5,0.56
2013-7-9,79,71,65,72,69,64,99,91,73,30.04,29.95,2,0,4,0.01
2013-7-10,77,72,68,75,70,67,98,95,86,29.96,29.75,1,0,3,0.07
2013-7-11,78,71,66,70,66,60,98,84,62,29.92,29.73,3,0,4,0.02
2013-7-12,76,69,63,66,61,57,83,76,65,30.12,29.91,2,0,5,0.01
2013-7-13,71,67,62,70,65,59,98,95,74,30.27,30.12,1,0,2,0.19
2013-7-14,81,74,66,75,71,65,99,91,80,30.31,30.19,3,0,4,0.01
2013-7-15,86,77,69,75,69,63,97,78,52,30.21,30.12,2,0,7,0.00
2013-7-16,86,77,68,71,66,62,88,71,45,30.18,30.11,2,0,8,0.00
2013-7-17,87,78,68,74,70,65,91,78,52,30.18,30.01,2,0,5,0.00
2013-7-18,89,78,72,75,72,69,96,81,53,30.02,29.91,2,0,4,0.06
2013-7-19,90,80,71,75,71,69,96,77,55,29.93,29.72,3,0,8,0.01
2013-7-20,84,76,67,72,68,59,90,78,58,29.81,29.67,3,0,4,0.00
2013-7-21,77,70,62,67,62,55,97,78,64,29.95,29.82,3,0,4,0.06
2013-7-22,77,69,63,71,66,62,98,90,64,29.95,29.78,3,0,5,0.35
2013-7-23,79,72,66,73,70,65,99,94,75,29.78,29.53,3,0,5,0.67
2013-7-24,74,67,57,67,60,50,98,80,57,29.95,29.58,3,0,8,0.01
2013-7-25,66,60,54,59,53,46,89,77,66,30.05,29.94,3,0,5,0.00
2013-7-26,73,65,57,62,59,54,93,81,64,30.04,29.97,3,0,5,0.00
2013-7-27,77,68,57,64,60,55,95,79,54,30.02,29.92,4,0,6,0.00
2013-7-28,67,65,63,67,64,60,98,94,82,29.95,29.90,2,0,2,0.35
2013-7-29,76,67,60,66,61,52,99,83,45,30.08,29.92,3,0,5,0.01
2013-7-30,72,63,55,60,56,53,94,79,59,30.14,30.07,3,0,5,0.00
2013-7-31,73,65,56,63,59,54,95,80,63,30.14,30.01,3,0,4,0.00
2013-8-1,67,63,61,64,62,59,98,95,90,30.01,29.82,2,0,8,0.39
2013-8-2,75,65,57,65,60,56,99,85,51,29.87,29.78,5,0,5,0.04
2013-8-3,76,65,58,62,57,52,97,78,48,29.87,29.79,3,0,5,0.01
2013-8-4,72,63,57,60,54,51,91,75,55,29.94,29.82,3,0,8,0.09
2013-8-5,71,61,53,53,49,44,85,66,42,30.03,29.94,4,0,6,0.00
2013-8-6,72,62,51,60,53,48,92,74,48,30.10,30.04,2,0,5,0.00
2013-8-7,67,64,61,64,61,57,98,92,82,30.11,30.03,1,0,3,0.13
2013-8-8,76,69,64,71,68,64,99,95,81,30.02,29.95,2,0,4,0.05
2013-8-9,75,71,67,75,70,67,100,98,95,29.95,29.75,2,0,3,1.22
2013-8-10,75,66,57,66,59,52,98,81,53,30.03,29.83,3,0,8,0.08
2013-8-11,73,62,51,61,55,49,94,79,54,30.09,29.99,3,0,5,0.00
2013-8-12,74,65,58,63,59,53,92,81,62,30.02,29.90,3,0,4,0.00
2013-8-13,71,65,62,68,63,60,98,94,86,29.90,29.64,2,0,4,0.32
2013-8-14,66,58,49,61,52,48,98,82,62,30.00,29.73,3,1,7,0.05
2013-8-15,69,59,50,55,51,47,94,76,49,30.12,30.01,4,0,6,0.02
2013-8-16,71,61,53,60,55,50,93,80,58,30.19,30.11,4,0,6,0.00
2013-8-17,73,63,54,61,56,52,95,81,59,30.27,30.19,3,0,4,0.00
2013-8-18,69,63,58,63,59,55,94,88,75,30.25,30.09,0,0,2,0.00
2013-8-19,74,65,59,65,60,56,94,84,63,30.09,29.99,2,0,3,0.00
2013-8-20,79,67,58,64,60,56,97,78,52,30.12,30.02,2,0,6,0.00
2013-8-21,80,68,58,68,62,56,94,81,55,30.15,30.01,2,0,3,0.00
2013-8-22,81,71,62,72,66,60,93,83,56,30.04,29.82,3,0,5,0.00
2013-8-23,73,67,61,65,57,50,86,72,49,30.12,29.85,3,0,3,0.01
2013-8-24,71,62,54,58,53,48,90,73,57,30.33,30.12,3,0,4,0.00
2013-8-25,76,64,54,61,55,51,94,75,51,30.36,30.17,2,0,4,0.00
2013-8-26,72,66,61,68,64,55,98,92,78,30.18,29.86,1,0,3,0.15
2013-8-27,76,69,65,70,66,63,99,91,71,29.89,29.80,2,0,4,0.21
2013-8-28,79,69,62,70,66,61,99,90,66,29.88,29.82,4,0,4,0.28
2013-8-29,72,66,64,67,65,63,98,94,83,30.00,29.88,3,0,5,0.05
2013-8-30,78,70,62,69,66,61,98,87,68,29.99,29.80,3,0,4,0.00
2013-8-31,81,72,66,74,69,64,97,91,72,29.80,29.72,1,0,5,0.05
2013-9-1,78,71,66,72,69,65,99,93,80,29.82,29.76,3,0,4,0.03
2013-9-2,74,69,64,71,68,63,99,98,90,29.78,29.66,2,0,4,0.21
2013-9-3,72,63,58,64,60,56,100,90,61,29.85,29.70,3,0,6,0.27
2013-9-4,75,64,58,59,56,54,94,77,48,29.94,29.84,4,0,7,0.36
2013-9-5,67,61,52,60,50,41,95,70,41,30.14,29.86,3,0,10,0.31
2013-9-6,62,53,43,50,43,38,91,71,51,30.25,30.10,3,0,5,0.21
2013-9-7,70,58,47,62,52,44,92,81,46,30.11,29.86,2,0,4,0.16
2013-9-8,69,60,52,63,52,40,98,77,47,30.08,29.79,5,0,8,0.03
2013-9-9,65,55,43,56,47,40,92,76,60,30.22,30.08,3,0,4,0.00
2013-9-10,75,66,60,73,65,57,99,94,87,30.11,30.01,1,0,2,0.12
2013-9-11,87,75,66,78,72,65,99,90,64,30.06,29.93,5,0,8,0.03
2013-9-12,80,69,64,74,67,63,99,95,79,29.94,29.64,3,0,6,0.10
2013-9-13,68,60,51,63,57,46,99,88,71,29.82,29.59,2,0,7,0.10
2013-9-14,61,52,47,49,46,43,91,79,62,30.10,29.82,4,1,8,0.06
2013-9-15,63,52,41,54,47,39,93,83,63,30.18,30.06,3,0,4,0.05
2013-9-16,62,56,48,54,50,41,98,82,67,30.26,30.03,3,0,6,0.04
2013-9-17,60,49,41,45,40,33,92,72,40,30.42,30.26,3,0,7,0.03
2013-9-18,64,52,41,53,46,39,95,81,55,30.34,30.16,3,0,5,0.03
2013-9-19,69,57,46,57,50,44,94,80,51,30.16,30.05,3,0,5,0.03
2013-9-20,72,60,51,58,54,49,96,81,49,30.06,29.95,3,0,4,0.04
2013-9-21,68,61,55,63,58,54,98,90,75,29.96,29.61,5,1,9,0.04
2013-9-22,59,55,49,58,49,40,98,81,59,29.88,29.60,5,1,9,0.03
2013-9-23,59,49,41,44,40,36,89,72,52,30.04,29.87,5,0,8,0.04
2013-9-24,68,52,39,46,40,36,95,67,32,30.04,29.88,4,0,6,0.03
2013-9-25,65,53,43,54,47,40,96,80,59,29.95,29.87,3,0,5,0.03
2013-9-26,63,54,47,53,50,46,97,86,67,30.12,29.96,4,0,5,0.03
2013-9-27,61,53,45,52,49,43,98,87,73,30.27,30.11,5,0,7,0.03
2013-9-28,66,55,45,53,48,44,97,81,49,30.34,30.23,3,0,5,0.04
2013-9-29,67,55,48,55,51,47,97,85,63,30.23,30.06,4,0,6,0.02
2013-9-30,67,56,48,55,51,46,97,85,61,30.08,29.96,4,0,6,0.02
2013-10-1,72,59,49,60,54,47,96,85,64,30.00,29.89,3,0,6,0.03
2013-10-2,76,64,54,62,57,50,95,77,56,29.99,29.89,4,1,7,0.01
2013-10-3,72,61,51,57,50,35,89,70,26,30.09,29.99,3,0,7,0.01
2013-10-4,71,62,57,62,58,52,98,86,70,30.04,29.97,4,0,6,0.01
2013-10-5,65,61,58,63,60,57,99,97,92,30.08,30.01,2,0,3,0.01
2013-10-6,60,58,57,60,58,56,99,99,97,30.09,30.03,2,0,5,0.01
2013-10-7,67,61,52,67,59,46,100,95,75,30.02,29.64,9,1,12,0.01
2013-10-8,64,53,44,47,43,39,90,72,41,30.34,29.91,4,1,9,0.01
2013-10-9,59,49,41,46,42,39,95,77,48,30.43,30.33,5,1,10,0.00
2013-10-10,56,49,41,49,44,39,94,83,69,30.33,30.15,2,0,3,0.01
2013-10-11,69,57,46,56,45,36,78,67,52,30.14,30.05,6,1,9,0.01
2013-10-12,70,57,46,54,48,37,89,71,54,30.31,30.12,6,1,12,0.00
2013-10-13,62,54,46,51,49,44,96,82,61,30.38,30.30,4,1,7,0.01
2013-10-14,64,56,48,53,50,47,93,81,62,30.35,30.21,5,0,7,0.00
2013-10-15,67,59,53,57,53,46,93,81,65,30.24,30.10,4,1,7,0.01
2013-10-16,59,55,49,54,50,39,93,82,59,30.09,29.87,3,0,4,0.01
2013-10-17,70,61,54,59,54,48,97,78,47,29.87,29.59,6,0,7,0.00
2013-10-18,62,55,47,60,45,36,98,71,39,29.93,29.57,8,1,13,0.01
2013-10-19,60,50,41,48,42,38,93,74,48,29.94,29.71,6,1,10,0.00
2013-10-20,57,49,42,48,37,33,90,65,41,30.02,29.69,9,1,10,0.00
2013-10-21,63,51,40,45,38,36,89,64,40,30.09,29.93,7,1,10,0.01
2013-10-22,59,50,43,48,41,31,88,73,51,29.92,29.69,3,0,9,0.00
2013-10-23,49,41,35,39,35,31,92,78,50,29.79,29.60,3,0,6,0.00
2013-10-24,48,40,32,36,29,25,92,69,43,29.91,29.71,10,1,13,0.01
2013-10-25,47,41,35,34,30,28,78,67,49,30.16,29.92,5,1,15,0.00
2013-10-26,50,42,32,33,29,25,89,62,39,30.15,29.83,8,1,12,0.00
2013-10-27,51,44,38,34,31,27,77,60,42,30.07,29.79,7,1,10,0.01
2013-10-28,56,44,35,35,32,29,82,66,44,30.31,30.06,3,1,9,0.00
2013-10-29,46,38,33,30,28,25,81,68,48,30.41,30.32,6,1,8,0.00
2013-10-30,52,43,35,41,37,28,94,81,65,30.33,30.17,4,0,7,0.01
2013-10-31,58,49,40,57,48,39,99,97,94,30.22,29.72,6,0,11,0.00
2013-11-1,64,59,50,61,52,43,98,80,52,29.72,29.43,13,2,19,0.01
2013-11-2,60,49,42,49,43,40,94,80,54,29.75,29.58,5,0,8,0.01
2013-11-3,45,36,28,42,30,20,88,76,67,30.45,29.75,5,1,9,0.01
2013-11-4,39,32,26,22,18,12,75,60,36,30.66,30.46,6,1,7,0.34
2013-11-5,49,40,29,38,32,21,84,73,60,30.66,30.46,5,1,8,0.87
2013-11-6,54,48,40,48,43,38,93,82,73,30.47,29.99,6,1,13,0.10
2013-11-7,56,48,36,52,43,29,97,83,68,29.98,29.73,9,2,16,0.10
2013-11-8,42,37,35,34,29,26,86,71,59,30.13,29.85,5,1,13,0.03
2013-11-9,42,39,35,29,28,25,77,65,55,30.22,29.94,7,1,11,0.01
2013-11-10,46,41,38,40,33,29,91,74,62,29.94,29.77,11,2,18,0.02
2013-11-11,47,42,37,32,28,25,75,59,45,30.13,29.91,8,1,14,0.02
2013-11-12,42,31,25,34,20,14,79,64,53,30.24,29.90,9,2,17,0.04
2013-11-13,34,27,21,20,14,10,73,60,40,30.34,30.19,7,2,13,0.00
2013-11-14,53,40,29,23,16,9,70,39,23,30.18,30.07,7,1,11,0.15
2013-11-15,55,44,34,23,18,12,47,35,22,30.19,30.10,4,0,8,0.09
2013-11-16,56,47,38,40,34,19,89,64,40,30.28,30.16,6,1,7,0.01
2013-11-17,56,49,42,55,48,37,99,96,82,30.24,29.72,5,1,13,0.22
2013-11-18,59,52,40,56,41,28,98,67,39,29.72,29.51,7,2,16,0.37
2013-11-19,40,35,28,31,24,19,72,64,56,30.34,29.71,11,3,17,0.08
2013-11-20,37,28,22,20,16,12,77,62,36,30.62,30.34,5,1,7,0.01
2013-11-21,41,33,23,33,24,15,82,69,49,30.63,30.37,4,0,8,0.04
2013-11-22,51,44,38,47,42,33,98,90,81,30.38,29.86,3,0,8,0.08
2013-11-23,46,33,20,40,23,8,88,67,46,30.00,29.83,6,2,13,0.01
2013-11-24,23,19,15,11,6,2,76,58,41,30.28,29.91,10,3,22,0.00
2013-11-25,30,24,14,17,12,7,80,62,50,30.42,30.25,5,1,9,0.00
2013-11-26,34,30,26,34,26,12,98,89,51,30.28,29.91,4,0,6,0.05
2013-11-27,46,38,29,46,36,22,99,92,73,29.88,29.36,7,2,15,2.48
2013-11-28,29,24,20,22,15,10,78,68,54,30.44,29.63,8,2,15,0.00
2013-11-29,31,24,18,19,16,8,85,72,55,30.72,30.44,5,0,9,0.01
2013-11-30,29,22,13,24,13,9,86,70,54,30.76,30.39,4,1,7,0.00
2013-12-1,38,34,29,30,29,24,89,82,70,30.38,30.00,4,0,6,0.00
2013-12-2,39,34,31,35,31,29,95,89,83,30.00,29.87,2,0,3,0.00
2013-12-3,43,35,30,36,32,29,97,90,74,29.99,29.88,3,0,5,0.00
2013-12-4,42,35,29,37,32,28,97,88,71,30.14,29.99,3,0,5,0.00
2013-12-5,49,46,41,49,45,37,99,97,84,30.13,29.89,3,0,5,0.18
2013-12-6,50,40,30,50,38,26,99,90,54,30.13,29.84,3,0,5,0.26
2013-12-7,34,29,23,30,24,17,97,81,61,30.48,30.09,4,0,10,0.05
2013-12-8,26,24,19,21,19,16,88,82,70,30.58,30.42,4,0,5,0.00
2013-12-9,33,29,23,33,28,21,98,96,89,30.41,29.91,2,0,4,0.00
2013-12-10,32,28,22,31,25,15,96,88,71,30.00,29.81,3,0,7,0.00
2013-12-11,28,23,20,18,16,15,88,75,59,30.21,30.01,4,1,9,0.00
2013-12-12,21,16,12,16,8,5,86,72,53,30.31,30.05,4,0,9,0.00
2013-12-13,27,22,13,17,13,8,80,69,60,30.33,30.00,8,2,13,0.00
2013-12-14,21,14,9,20,11,7,95,86,70,30.51,30.00,5,0,8,0.00
2013-12-15,33,27,21,29,23,18,96,86,66,29.97,29.55,5,1,15,0.00
2013-12-16,28,19,9,18,10,5,85,66,51,30.19,29.73,7,1,13,0.00
2013-12-17,21,14,4,20,12,1,93,91,85,30.21,29.97,0,0,1,0.00
2013-12-18,31,23,12,24,19,10,95,86,66,30.09,29.94,4,0,8,0.00
2013-12-19,41,32,21,30,25,18,89,76,57,30.11,29.95,3,0,6,0.25
2013-12-20,49,42,35,42,36,31,89,80,69,30.08,29.90,7,1,10,0.60
2013-12-21,57,50,46,51,47,40,98,89,77,29.91,29.81,3,1,9,0.05
2013-12-22,61,58,51,58,55,50,98,90,80,29.89,29.70,7,1,13,0.01
2013-12-23,56,44,32,53,41,25,99,92,74,30.11,29.86,3,0,8,0.38
2013-12-24,32,27,17,25,19,7,86,72,60,30.28,30.07,8,1,13,0.00
2013-12-25,22,17,13,10,7,2,73,64,52,30.50,30.28,6,1,9,0.00
2013-12-26,30,25,20,25,19,10,90,79,66,30.41,30.12,3,0,7,0.00
2013-12-27,32,28,24,25,22,17,86,75,62,30.29,30.21,6,1,6,0.01
2013-12-28,47,34,26,31,27,23,91,77,52,30.21,30.00,5,0,12,0.00
2013-12-29,41,37,34,37,34,30,98,86,72,30.02,29.50,3,0,6,0.80
2013-12-30,38,27,13,35,20,7,97,75,62,30.16,29.63,7,1,12,0.05
2013-12-31,22,16,11,20,12,7,92,83,65,30.21,30.01,6,1,13,0.00
2014-1-1,24,19,14,16,11,8,92,71,53,30.37,30.21,4,1,9,0.00
2014-1-2,17,14,12,15,12,10,92,91,87,30.28,29.78,1,0,7,0.00